PulseSat

PulseSat

MOLNIYA 3-40

Last updated on Dec. 9, 2018, 12:08 a.m. UTC

1 21196U 91022A   18342.20234927  .00000280  00000-0  00000+0 0  9999
2 21196  63.7185 112.8266 6816233 287.2121  12.8740  2.02993667203527
UTC
Height (km)
Latitude
Longitude
Inclination
Orbital Period

Next 30 passes for location: Hong Kong

Rise time Rise Azimuth (degrees) Set time Set Azimuth (degrees) Duration Max altitude (degrees)

No matching passes for this satellites

PulseSat

PulseSat is the new satellites software and hardware trackering solution by Pulsely.
Satellite Two Line Element Set source: US Air Force Space Command

Download PulseSat for iOS
© 2017 Pulsely Limited